• Em Portugal
  • Lista de países
  • Para 7 dias
  • Temperatura da água
  • Mapas de satélite
  • Mapa do tempo
  • Widgets de tempo
  • user-avatar
    Iniciar Sessão

    Previsão horária em Sierpnica

    Hoje, 19 Julho, Quinta-feira

    Tempo Temperatura Precipitação Vento Pressão Humidade
    00:00 +15°C° 0 mm 2 m/s 709 mmHg 93%
    01:00 +15°C° 0 mm 2 m/s 709 mmHg 94%
    02:00 +14°C° 0 mm 3 m/s 709 mmHg 94%
    03:00 +13°C° 0 mm 3 m/s 709 mmHg 95%
    04:00 +13°C° 0 mm 3 m/s 709 mmHg 95%
    05:00 +14°C° 0 mm 3 m/s 709 mmHg 92%
    06:00 +15°C° 0 mm 4 m/s 709 mmHg 89%
    07:00 +17°C° 0 mm 4 m/s 709 mmHg 86%
    08:00 +17°C° 0,1 mm 5 m/s 709 mmHg 83%
    09:00 +17°C° 0,1 mm 5 m/s 710 mmHg 79%
    10:00 +19°C° 0,1 mm 5 m/s 710 mmHg 76%
    11:00 +19°C° 0,3 mm 6 m/s 710 mmHg 78%
    12:00 +19°C° 0,3 mm 6 m/s 710 mmHg 79%
    13:00 +19°C° 0,3 mm 6 m/s 710 mmHg 80%
    14:00 +17°C° 0,1 mm 5 m/s 710 mmHg 83%
    15:00 +17°C° 0,1 mm 5 m/s 709 mmHg 85%
    16:00 +16°C° 0,1 mm 5 m/s 709 mmHg 88%
    17:00 +17°C° 0,1 mm 4 m/s 709 mmHg 88%
    18:00 +17°C° 0,1 mm 4 m/s 709 mmHg 89%
    19:00 +16°C° 0,1 mm 3 m/s 709 mmHg 90%
    20:00 +16°C° 0 mm 3 m/s 709 mmHg 91%
    21:00 +14°C° 0 mm 3 m/s 709 mmHg 93%
    22:00 +14°C° 0 mm 3 m/s 710 mmHg 94%
    23:00 +14°C° 0 mm 3 m/s 710 mmHg 95%

    Amanhã, 20 Julho, Sexta-feira

    Tempo Temperatura Precipitação Vento Pressão Humidade
    00:00 +14°C° 0 mm 2 m/s 710 mmHg 95%
    01:00 +14°C° 0 mm 2 m/s 710 mmHg 96%
    02:00 +14°C° 0 mm 2 m/s 710 mmHg 95%
    03:00 +13°C° 0 mm 2 m/s 710 mmHg 95%
    04:00 +13°C° 0 mm 2 m/s 709 mmHg 95%
    05:00 +14°C° 0 mm 2 m/s 710 mmHg 90%
    06:00 +15°C° 0 mm 2 m/s 710 mmHg 84%
    07:00 +16°C° 0 mm 2 m/s 710 mmHg 79%
    08:00 +18°C° 0 mm 3 m/s 710 mmHg 71%
    09:00 +19°C° 0 mm 3 m/s 711 mmHg 64%
    10:00 +21°C° 0 mm 3 m/s 711 mmHg 56%
    11:00 +21°C° 0 mm 3 m/s 711 mmHg 53%
    12:00 +22°C° 0 mm 3 m/s 710 mmHg 50%
    13:00 +24°C° 0 mm 3 m/s 710 mmHg 47%
    14:00 +24°C° 0 mm 3 m/s 710 mmHg 46%
    15:00 +24°C° 0 mm 3 m/s 710 mmHg 46%
    16:00 +24°C° 0 mm 2 m/s 709 mmHg 46%
    17:00 +23°C° 0 mm 2 m/s 709 mmHg 52%
    18:00 +21°C° 0 mm 1 m/s 709 mmHg 58%
    19:00 +20°C° 0 mm 1 m/s 709 mmHg 64%
    20:00 +19°C° 0 mm 1 m/s 709 mmHg 66%
    21:00 +16°C° 0 mm 1 m/s 709 mmHg 69%
    22:00 +15°C° 0 mm 1 m/s 709 mmHg 71%
    23:00 +14°C° 0 mm 1 m/s 708 mmHg 71%

    Depois de amanhã, 21 Julho, Sábado

    Tempo Temperatura Precipitação Vento Pressão Humidade
    00:00 +14°C° 0 mm 1 m/s 708 mmHg 72%
    01:00 +14°C° 0 mm 1 m/s 708 mmHg 73%
    02:00 +13°C° 0 mm 1 m/s 708 mmHg 73%
    03:00 +13°C° 0 mm 1 m/s 708 mmHg 74%
    04:00 +13°C° 0 mm 1 m/s 708 mmHg 75%
    05:00 +15°C° 0 mm 1 m/s 708 mmHg 71%
    06:00 +16°C° 0 mm 1 m/s 708 mmHg 67%
    07:00 +19°C° 0 mm 1 m/s 708 mmHg 64%
    08:00 +21°C° 0 mm 1 m/s 708 mmHg 59%
    09:00 +22°C° 0 mm 1 m/s 709 mmHg 54%
    10:00 +24°C° 0 mm 1 m/s 709 mmHg 50%
    11:00 +24°C° 0 mm 1 m/s 709 mmHg 48%
    12:00 +25°C° 0 mm 1 m/s 708 mmHg 47%
    13:00 +25°C° 0 mm 1 m/s 708 mmHg 45%
    14:00 +25°C° 0 mm 1 m/s 708 mmHg 45%
    15:00 +25°C° 0 mm 1 m/s 708 mmHg 46%
    16:00 +25°C° 0 mm 1 m/s 708 mmHg 46%
    17:00 +24°C° 0 mm 1 m/s 707 mmHg 52%
    18:00 +23°C° 0 mm 1 m/s 707 mmHg 58%
    19:00 +21°C° 0 mm 1 m/s 707 mmHg 64%
    20:00 +20°C° 0 mm 1 m/s 707 mmHg 66%
    21:00 +19°C° 0 mm 1 m/s 707 mmHg 69%
    22:00 +18°C° 0 mm 1 m/s 707 mmHg 71%
    23:00 +16°C° 0 mm 1 m/s 707 mmHg 73%

    22 Julho, Domingo

    Tempo Temperatura Precipitação Vento Pressão Humidade
    00:00 +16°C° 0 mm 1 m/s 707 mmHg 75%
    01:00 +14°C° 0 mm 0 m/s 706 mmHg 77%
    02:00 +14°C° 0 mm 0 m/s 706 mmHg 78%
    03:00 +14°C° 0 mm 0 m/s 706 mmHg 79%
    04:00 +13°C° 0 mm 0 m/s 706 mmHg 80%
    05:00 +15°C° 0 mm 0 m/s 706 mmHg 77%
    06:00 +16°C° 0 mm 0 m/s 706 mmHg 74%
    07:00 +18°C° 0 mm 0 m/s 707 mmHg 70%
    08:00 +21°C° 0,2 mm 1 m/s 707 mmHg 68%
    09:00 +21°C° 0,2 mm 1 m/s 707 mmHg 66%
    10:00 +22°C° 0,2 mm 1 m/s 707 mmHg 64%
    11:00 +23°C° 0,5 mm 1 m/s 707 mmHg 62%
    12:00 +24°C° 0,5 mm 1 m/s 707 mmHg 60%
    13:00 +24°C° 0,5 mm 1 m/s 707 mmHg 58%
    14:00 +24°C° 0,5 mm 2 m/s 707 mmHg 59%
    15:00 +24°C° 0,5 mm 2 m/s 707 mmHg 61%
    16:00 +23°C° 0,5 mm 2 m/s 707 mmHg 62%
    17:00 +21°C° 0,3 mm 2 m/s 707 mmHg 67%
    18:00 +20°C° 0,3 mm 2 m/s 707 mmHg 71%
    19:00 +19°C° 0,3 mm 2 m/s 707 mmHg 75%
    20:00 +18°C° 0 mm 2 m/s 707 mmHg 77%
    21:00 +17°C° 0 mm 2 m/s 707 mmHg 78%
    22:00 +16°C° 0 mm 2 m/s 707 mmHg 80%
    23:00 +16°C° 0 mm 2 m/s 707 mmHg 81%

    23 Julho, Segunda-feira

    Tempo Temperatura Precipitação Vento Pressão Humidade
    00:00 +15°C° 0 mm 2 m/s 707 mmHg 82%
    01:00 +15°C° 0 mm 2 m/s 708 mmHg 83%
    02:00 +15°C° 0 mm 2 m/s 708 mmHg 84%
    03:00 +15°C° 0 mm 2 m/s 708 mmHg 84%
    04:00 +14°C° 0 mm 2 m/s 708 mmHg 85%
    05:00 +15°C° 0 mm 2 m/s 708 mmHg 83%
    06:00 +16°C° 0 mm 2 m/s 709 mmHg 81%
    07:00 +17°C° 0 mm 3 m/s 709 mmHg 79%
    08:00 +18°C° 0,4 mm 3 m/s 709 mmHg 75%
    09:00 +20°C° 0,4 mm 3 m/s 710 mmHg 71%
    10:00 +21°C° 0,4 mm 4 m/s 710 mmHg 67%
    11:00 +21°C° 0,7 mm 4 m/s 710 mmHg 66%
    12:00 +22°C° 0,7 mm 4 m/s 710 mmHg 65%
    13:00 +22°C° 0,7 mm 4 m/s 710 mmHg 65%
    14:00 +22°C° 0,4 mm 4 m/s 710 mmHg 64%
    15:00 +22°C° 0,4 mm 4 m/s 710 mmHg 63%
    16:00 +22°C° 0,4 mm 4 m/s 710 mmHg 63%
    17:00 +21°C° 0,1 mm 3 m/s 710 mmHg 67%
    18:00 +20°C° 0,1 mm 2 m/s 710 mmHg 71%
    19:00 +19°C° 0,1 mm 2 m/s 710 mmHg 75%
    20:00 +19°C° 0 mm 1 m/s 710 mmHg 78%
    21:00 +18°C° 0 mm 1 m/s 710 mmHg 80%
    22:00 +15°C° 0 mm 1 m/s 710 mmHg 83%
    23:00 +15°C° 0 mm 1 m/s 710 mmHg 84%

    24 Julho, Terça-feira

    Tempo Temperatura Precipitação Vento Pressão Humidade
    00:00 +14°C° 0 mm 1 m/s 710 mmHg 85%
    01:00 +14°C° 0 mm 1 m/s 710 mmHg 86%
    02:00 +13°C° 0 mm 1 m/s 710 mmHg 87%
    03:00 +13°C° 0 mm 1 m/s 710 mmHg 88%
    04:00 +13°C° 0 mm 1 m/s 710 mmHg 89%
    05:00 +14°C° 0 mm 1 m/s 710 mmHg 84%
    06:00 +16°C° 0 mm 1 m/s 711 mmHg 79%
    07:00 +19°C° 0 mm 1 m/s 711 mmHg 74%
    08:00 +20°C° 0 mm 1 m/s 711 mmHg 69%
    09:00 +21°C° 0 mm 1 m/s 711 mmHg 64%
    10:00 +23°C° 0 mm 2 m/s 711 mmHg 59%
    11:00 +23°C° 0 mm 2 m/s 711 mmHg 57%
    12:00 +24°C° 0 mm 2 m/s 711 mmHg 56%
    13:00 +25°C° 0 mm 2 m/s 711 mmHg 54%
    14:00 +25°C° 0 mm 2 m/s 711 mmHg 54%
    15:00 +25°C° 0 mm 2 m/s 711 mmHg 55%
    16:00 +25°C° 0 mm 2 m/s 711 mmHg 55%
    17:00 +24°C° 0 mm 2 m/s 710 mmHg 61%
    18:00 +21°C° 0 mm 2 m/s 710 mmHg 67%
    19:00 +21°C° 0 mm 1 m/s 710 mmHg 73%
    20:00 +20°C° 0 mm 1 m/s 710 mmHg 76%
    21:00 +19°C° 0 mm 1 m/s 711 mmHg 80%
    22:00 +16°C° 0 mm 1 m/s 711 mmHg 84%
    23:00 +16°C° 0 mm 1 m/s 711 mmHg 84%
    Mostrar mais